TRA643M EHRD-LEAM

Flight info

Callsign TRA643M
Flight time 2h 33m
Altitude 37000
Route WOODY N872 CIV DCT KOVIN DCT DUCRA DCT RESMI DCT DEKOD DCT DISAK DCT ARKIP DCT ARNAV DCT LMG DCT UVELI DCT OSMOB DCT VAVIX DCT NETUK N857 BAN N10 CJN L27 BLN N865 ESILA
Aircraft B738/M-SDE2E3FGHIRWXY/LB1

Departure

Time 2026-05-06 05:25
Airport Rotterdam The Hague Airport (EHRD)

Arrival

Time 2026-05-06 07:58
Airport Almería Airport (LEAM)
Time Latitude Longitude Altitude Speed Heading
2026-05-06 05:01 51.95165 4.43350 0 ft 0 kts 327°
2026-05-06 05:23 51.95175 4.43340 0 ft 7 kts 327°
2026-05-06 05:23 51.95187 4.43263 0 ft 8 kts 237°
2026-05-06 05:23 51.95131 4.43102 0 ft 8 kts 247°
2026-05-06 05:24 51.95110 4.43021 0 ft 8 kts 249°
2026-05-06 05:24 51.95121 4.42941 0 ft 7 kts 310°
2026-05-06 05:24 51.95163 4.42893 0 ft 7 kts 326°
2026-05-06 05:24 51.95260 4.42937 1 ft 33 kts 59°
2026-05-06 05:25 51.95542 4.43655 -2 ft 115 kts 57°
2026-05-06 05:25 51.96092 4.45004 246 ft 159 kts 54°
2026-05-06 05:25 51.96711 4.46618 990 ft 172 kts 57°
2026-05-06 05:26 51.97237 4.48070 2196 ft 163 kts 59°
2026-05-06 05:26 51.97841 4.49796 2715 ft 191 kts 59°
2026-05-06 05:26 51.98518 4.51797 3022 ft 214 kts 61°
2026-05-06 05:26 51.98980 4.53261 3309 ft 223 kts 62°
2026-05-06 05:27 51.99744 4.56498 3894 ft 246 kts 83°
2026-05-06 05:27 51.99609 4.59304 4467 ft 261 kts 103°
2026-05-06 05:27 51.99197 4.61193 5021 ft 264 kts 111°
2026-05-06 05:27 51.97621 4.64199 6180 ft 274 kts 146°
2026-05-06 05:28 51.95936 4.65698 6987 ft 279 kts 153°
2026-05-06 05:28 51.94702 4.66454 7476 ft 284 kts 169°
2026-05-06 05:28 51.92746 4.66287 8320 ft 284 kts 198°
2026-05-06 05:28 51.91040 4.64731 9183 ft 284 kts 224°
2026-05-06 05:29 51.89793 4.62257 9983 ft 285 kts 236°
2026-05-06 05:29 51.88655 4.59531 10392 ft 303 kts 237°
2026-05-06 05:29 51.87332 4.56702 10551 ft 329 kts 223°
2026-05-06 05:29 51.85293 4.54803 10727 ft 353 kts 199°
2026-05-06 05:30 51.82857 4.53687 10922 ft 374 kts 195°
2026-05-06 05:30 51.80292 4.52671 11371 ft 385 kts 194°
2026-05-06 05:30 51.77664 4.51660 11964 ft 391 kts 194°
2026-05-06 05:30 51.75012 4.50629 12699 ft 393 kts 194°
2026-05-06 05:31 51.72373 4.49581 13258 ft 400 kts 194°
2026-05-06 05:31 51.69654 4.48483 13850 ft 405 kts 194°
2026-05-06 05:31 51.66925 4.47370 14619 ft 403 kts 195°
2026-05-06 05:31 51.64199 4.46252 15227 ft 407 kts 194°
2026-05-06 05:32 51.61442 4.45119 15816 ft 410 kts 194°
2026-05-06 05:32 51.58674 4.43983 16490 ft 411 kts 194°
2026-05-06 05:32 51.55899 4.42845 17155 ft 412 kts 194°
2026-05-06 05:32 51.53111 4.41703 17760 ft 415 kts 194°
2026-05-06 05:33 51.50310 4.40559 18331 ft 417 kts 194°
2026-05-06 05:33 51.47489 4.39407 18863 ft 419 kts 194°
2026-05-06 05:33 51.44662 4.38254 19378 ft 421 kts 194°
2026-05-06 05:33 51.41815 4.37095 19873 ft 423 kts 194°
2026-05-06 05:34 51.39002 4.35684 20347 ft 425 kts 203°
2026-05-06 05:34 51.36324 4.33667 20834 ft 427 kts 207°
2026-05-06 05:34 51.33660 4.31515 21320 ft 429 kts 207°
2026-05-06 05:34 51.30978 4.29413 21781 ft 431 kts 206°
2026-05-06 05:35 51.28260 4.27325 22162 ft 435 kts 206°
2026-05-06 05:35 51.25521 4.25241 22614 ft 437 kts 206°
2026-05-06 05:35 51.22768 4.23153 23029 ft 440 kts 206°
2026-05-06 05:35 51.19995 4.21051 23428 ft 442 kts 206°
2026-05-06 05:36 51.18061 4.19586 23630 ft 445 kts 206°
2026-05-06 05:36 51.15951 4.18030 23886 ft 446 kts 203°
2026-05-06 05:36 51.13043 4.16304 24295 ft 447 kts 200°
2026-05-06 05:36 51.10085 4.14721 24587 ft 450 kts 199°
2026-05-06 05:37 51.07102 4.13163 24909 ft 452 kts 199°
2026-05-06 05:37 51.04113 4.11589 25251 ft 453 kts 199°
2026-05-06 05:37 51.01118 4.09986 25564 ft 455 kts 199°
2026-05-06 05:37 50.98115 4.08359 25879 ft 457 kts 199°
2026-05-06 05:38 50.95103 4.06718 26196 ft 458 kts 199°
2026-05-06 05:38 50.92084 4.05072 26491 ft 460 kts 199°
2026-05-06 05:38 50.89049 4.03424 26793 ft 461 kts 199°
2026-05-06 05:38 50.86032 4.01705 27197 ft 460 kts 201°
2026-05-06 05:39 50.83067 3.99840 27701 ft 457 kts 202°
2026-05-06 05:39 50.80131 3.97918 28167 ft 456 kts 202°
2026-05-06 05:39 50.77209 3.95994 28588 ft 455 kts 202°
2026-05-06 05:39 50.74291 3.94089 29029 ft 453 kts 202°
2026-05-06 05:40 50.71377 3.92207 29468 ft 452 kts 202°
2026-05-06 05:40 50.68463 3.90341 29861 ft 451 kts 201°
2026-05-06 05:40 50.65553 3.88486 30182 ft 451 kts 201°
2026-05-06 05:40 50.62646 3.86635 30511 ft 450 kts 201°
2026-05-06 05:41 50.59745 3.84791 30855 ft 449 kts 201°
2026-05-06 05:41 50.56893 3.82977 31193 ft 448 kts 202°
2026-05-06 05:41 50.53983 3.81051 31523 ft 447 kts 203°
2026-05-06 05:41 50.51170 3.79130 31826 ft 447 kts 203°
2026-05-06 05:42 50.48330 3.77170 32167 ft 445 kts 204°
2026-05-06 05:42 50.45500 3.75217 32488 ft 445 kts 204°
2026-05-06 05:42 50.42665 3.73268 32771 ft 444 kts 203°
2026-05-06 05:42 50.39835 3.71332 33086 ft 443 kts 203°
2026-05-06 05:43 50.37012 3.69409 33426 ft 442 kts 203°
2026-05-06 05:43 50.34404 3.67638 33721 ft 441 kts 203°
2026-05-06 05:43 50.31590 3.65732 33954 ft 441 kts 203°
2026-05-06 05:43 50.28770 3.63825 34167 ft 441 kts 203°
2026-05-06 05:44 50.25954 3.61923 34388 ft 441 kts 203°
2026-05-06 05:44 50.23136 3.60022 34584 ft 441 kts 203°
2026-05-06 05:44 50.20315 3.58121 34764 ft 442 kts 203°
2026-05-06 05:44 50.17492 3.56222 34994 ft 441 kts 203°
2026-05-06 05:45 50.14675 3.54329 35227 ft 441 kts 203°
2026-05-06 05:45 50.11857 3.52437 35405 ft 442 kts 203°
2026-05-06 05:45 50.09031 3.50543 35553 ft 443 kts 203°
2026-05-06 05:45 50.06205 3.48650 35766 ft 442 kts 203°
2026-05-06 05:46 50.03381 3.46762 35988 ft 441 kts 203°
2026-05-06 05:46 50.00559 3.44878 36172 ft 441 kts 203°
2026-05-06 05:46 49.97737 3.42996 36303 ft 443 kts 203°
2026-05-06 05:46 49.94906 3.41110 36470 ft 443 kts 203°
2026-05-06 05:47 49.92072 3.39225 36676 ft 442 kts 203°
2026-05-06 05:47 49.89246 3.37348 36851 ft 442 kts 203°
2026-05-06 05:47 49.83556 3.33574 36863 ft 446 kts 203°
2026-05-06 05:48 49.77864 3.29809 36845 ft 444 kts 203°
2026-05-06 05:48 49.72194 3.26069 36867 ft 442 kts 203°
2026-05-06 05:49 49.66570 3.22367 36853 ft 442 kts 203°
2026-05-06 05:49 49.60929 3.18664 36854 ft 440 kts 203°
2026-05-06 05:50 49.55285 3.14967 36866 ft 441 kts 203°
2026-05-06 05:50 49.49579 3.11229 36851 ft 444 kts 205°
2026-05-06 05:51 49.44278 3.06400 36859 ft 444 kts 213°
2026-05-06 05:51 49.39195 3.01136 36854 ft 443 kts 213°
2026-05-06 05:52 49.34039 2.95841 36867 ft 444 kts 213°
2026-05-06 05:52 49.28918 2.90651 36868 ft 444 kts 213°
2026-05-06 05:53 49.23846 2.85543 36857 ft 445 kts 213°
2026-05-06 05:53 49.18986 2.80660 36858 ft 445 kts 213°
2026-05-06 05:54 49.13804 2.75464 36881 ft 446 kts 213°
2026-05-06 05:54 49.08595 2.70253 36859 ft 448 kts 213°
2026-05-06 05:55 49.03379 2.65047 36872 ft 448 kts 213°
2026-05-06 05:55 48.98153 2.59845 36857 ft 449 kts 213°
2026-05-06 05:56 48.92928 2.54658 36864 ft 448 kts 213°
2026-05-06 05:56 48.87698 2.49476 36862 ft 449 kts 213°
2026-05-06 05:57 48.82470 2.44306 36859 ft 448 kts 212°
2026-05-06 05:57 48.77240 2.39147 36856 ft 448 kts 212°
2026-05-06 05:58 48.72011 2.34001 36857 ft 448 kts 212°
2026-05-06 05:58 48.66784 2.28870 36859 ft 448 kts 212°
2026-05-06 05:59 48.61554 2.23748 36864 ft 448 kts 212°
2026-05-06 05:59 48.56115 2.19187 36856 ft 448 kts 201°
2026-05-06 06:00 48.50096 2.16859 36858 ft 447 kts 191°
2026-05-06 06:00 48.43991 2.15012 36848 ft 448 kts 192°
2026-05-06 06:01 48.37894 2.13083 36838 ft 448 kts 192°
2026-05-06 06:01 48.31797 2.11121 36854 ft 449 kts 192°
2026-05-06 06:02 48.25569 2.10445 36833 ft 451 kts 174°
2026-05-06 06:02 48.19403 2.11858 36838 ft 451 kts 172°
2026-05-06 06:03 48.13179 2.13016 36834 ft 451 kts 179°
2026-05-06 06:03 48.06959 2.12131 36853 ft 450 kts 188°
2026-05-06 06:04 48.00754 2.10826 36854 ft 450 kts 188°
2026-05-06 06:04 47.94544 2.09578 36866 ft 450 kts 187°
2026-05-06 06:05 47.88330 2.08379 36849 ft 451 kts 187°
2026-05-06 06:05 47.82112 2.07190 36860 ft 450 kts 187°
2026-05-06 06:06 47.75896 2.06002 36852 ft 450 kts 187°
2026-05-06 06:06 47.69675 2.04814 36830 ft 451 kts 187°
2026-05-06 06:07 47.63467 2.03494 36825 ft 450 kts 193°
2026-05-06 06:07 47.57564 2.00433 36826 ft 450 kts 202°
2026-05-06 06:08 47.51760 1.96955 36835 ft 450 kts 202°
2026-05-06 06:08 47.45929 1.93523 36838 ft 451 kts 201°
2026-05-06 06:09 47.40086 1.90141 36850 ft 451 kts 201°
2026-05-06 06:09 47.34230 1.86770 36854 ft 452 kts 201°
2026-05-06 06:10 47.28376 1.83405 36858 ft 452 kts 201°
2026-05-06 06:10 47.22513 1.80040 36854 ft 452 kts 201°
2026-05-06 06:11 47.16646 1.76701 36851 ft 452 kts 201°
2026-05-06 06:11 47.10771 1.73401 36848 ft 452 kts 201°
2026-05-06 06:12 47.04895 1.70110 36849 ft 452 kts 201°
2026-05-06 06:12 46.99060 1.66843 36857 ft 452 kts 201°
2026-05-06 06:13 46.93190 1.63562 36855 ft 452 kts 201°
2026-05-06 06:13 46.87320 1.60288 36860 ft 452 kts 201°
2026-05-06 06:14 46.81442 1.57017 36856 ft 452 kts 201°
2026-05-06 06:14 46.76523 1.54286 36857 ft 452 kts 201°
2026-05-06 06:15 46.70649 1.51032 36857 ft 451 kts 201°
2026-05-06 06:15 46.64779 1.47787 36857 ft 451 kts 201°
2026-05-06 06:16 46.58942 1.44568 36858 ft 451 kts 201°
2026-05-06 06:16 46.53069 1.41337 36858 ft 451 kts 201°
2026-05-06 06:17 46.47198 1.38114 36863 ft 451 kts 201°
2026-05-06 06:17 46.41285 1.34877 36862 ft 451 kts 201°
2026-05-06 06:18 46.35449 1.31688 36865 ft 451 kts 201°
2026-05-06 06:18 46.29577 1.28487 36872 ft 451 kts 201°
2026-05-06 06:19 46.23700 1.25290 36867 ft 451 kts 201°
2026-05-06 06:19 46.17821 1.22100 36871 ft 452 kts 201°
2026-05-06 06:20 46.11937 1.18914 36878 ft 452 kts 201°
2026-05-06 06:20 46.06050 1.15734 36884 ft 452 kts 201°
2026-05-06 06:21 46.00163 1.12561 36880 ft 452 kts 201°
2026-05-06 06:21 45.94267 1.09390 36887 ft 452 kts 201°
2026-05-06 06:22 45.88370 1.06225 36883 ft 453 kts 201°
2026-05-06 06:22 45.82514 1.02888 36877 ft 453 kts 208°
2026-05-06 06:23 45.77374 0.97762 36896 ft 451 kts 220°
2026-05-06 06:23 45.72593 0.91929 36881 ft 452 kts 221°
2026-05-06 06:24 45.67795 0.86107 36885 ft 452 kts 220°
2026-05-06 06:24 45.62973 0.80332 36886 ft 453 kts 220°
2026-05-06 06:25 45.58135 0.74577 36887 ft 453 kts 220°
2026-05-06 06:26 45.50861 0.65956 36896 ft 453 kts 220°
2026-05-06 06:26 45.46005 0.60215 36895 ft 454 kts 220°
2026-05-06 06:27 45.41148 0.54485 36899 ft 454 kts 220°
2026-05-06 06:27 45.36284 0.48760 36893 ft 454 kts 220°
2026-05-06 06:28 45.31421 0.43049 36893 ft 453 kts 220°
2026-05-06 06:28 45.26558 0.37352 36897 ft 453 kts 220°
2026-05-06 06:29 45.21696 0.31668 36897 ft 453 kts 220°
2026-05-06 06:29 45.16832 0.25995 36894 ft 453 kts 220°
2026-05-06 06:30 45.11969 0.20336 36895 ft 452 kts 220°
2026-05-06 06:30 45.07112 0.14694 36896 ft 452 kts 220°
2026-05-06 06:31 45.02284 0.09101 36897 ft 451 kts 220°
2026-05-06 06:31 44.97389 0.03447 36893 ft 451 kts 220°
2026-05-06 06:32 44.92563 -0.02118 36893 ft 451 kts 220°
2026-05-06 06:32 44.87706 -0.07708 36895 ft 450 kts 220°
2026-05-06 06:33 44.82860 -0.13275 36893 ft 450 kts 220°
2026-05-06 06:33 44.78008 -0.18835 36897 ft 449 kts 220°
2026-05-06 06:34 44.73160 -0.24379 36895 ft 449 kts 220°
2026-05-06 06:34 44.68312 -0.29913 36897 ft 449 kts 220°
2026-05-06 06:35 44.63419 -0.35359 36897 ft 449 kts 217°
2026-05-06 06:35 44.58277 -0.40342 36902 ft 449 kts 215°
2026-05-06 06:36 44.53086 -0.45228 36896 ft 449 kts 216°
2026-05-06 06:36 44.47920 -0.50150 36903 ft 449 kts 216°
2026-05-06 06:37 44.42771 -0.55089 36900 ft 449 kts 216°
2026-05-06 06:37 44.37630 -0.60014 36908 ft 448 kts 216°
2026-05-06 06:38 44.32480 -0.64937 36905 ft 449 kts 216°
2026-05-06 06:38 44.27322 -0.69850 36913 ft 448 kts 216°
2026-05-06 06:39 44.22128 -0.74667 36915 ft 448 kts 215°
2026-05-06 06:39 44.16948 -0.79403 36918 ft 448 kts 215°
2026-05-06 06:40 44.11741 -0.84164 36923 ft 447 kts 215°
2026-05-06 06:40 44.06548 -0.88915 36928 ft 447 kts 215°
2026-05-06 06:41 44.01355 -0.93661 36934 ft 447 kts 215°
2026-05-06 06:41 43.96161 -0.98399 36945 ft 446 kts 215°
2026-05-06 06:42 43.90967 -1.03126 36950 ft 446 kts 215°
2026-05-06 06:42 43.85778 -1.07838 36955 ft 446 kts 215°
2026-05-06 06:43 43.80584 -1.12544 36966 ft 446 kts 216°
2026-05-06 06:43 43.75956 -1.16730 36963 ft 446 kts 215°
2026-05-06 06:44 43.70759 -1.21420 36966 ft 446 kts 216°
2026-05-06 06:44 43.65557 -1.26106 36963 ft 446 kts 215°
2026-05-06 06:45 43.60357 -1.30780 36963 ft 446 kts 215°
2026-05-06 06:45 43.55162 -1.35439 36965 ft 446 kts 216°
2026-05-06 06:46 43.49960 -1.40096 36973 ft 446 kts 216°
2026-05-06 06:46 43.44754 -1.44746 36963 ft 446 kts 216°
2026-05-06 06:47 43.39554 -1.49381 36963 ft 445 kts 216°
2026-05-06 06:47 43.34359 -1.54005 36968 ft 445 kts 216°
2026-05-06 06:48 43.29160 -1.58610 36985 ft 444 kts 213°
2026-05-06 06:48 43.23478 -1.61881 36991 ft 450 kts 198°
2026-05-06 06:49 43.17251 -1.63148 36988 ft 454 kts 189°
2026-05-06 06:49 43.10937 -1.64091 37005 ft 453 kts 190°
2026-05-06 06:50 43.04714 -1.65073 36996 ft 453 kts 191°
2026-05-06 06:50 42.98458 -1.66097 37007 ft 453 kts 191°
2026-05-06 06:51 42.92208 -1.67126 36996 ft 452 kts 191°
2026-05-06 06:51 42.85965 -1.68149 36999 ft 452 kts 191°
2026-05-06 06:52 42.79717 -1.69170 36984 ft 452 kts 191°
2026-05-06 06:52 42.73537 -1.70507 36982 ft 446 kts 200°
2026-05-06 06:53 42.67896 -1.73751 37003 ft 439 kts 211°
2026-05-06 06:53 42.62450 -1.77511 36994 ft 439 kts 210°
2026-05-06 06:54 42.56983 -1.81222 37008 ft 439 kts 210°
2026-05-06 06:54 42.51509 -1.84888 37011 ft 439 kts 210°
2026-05-06 06:55 42.46036 -1.88540 37024 ft 438 kts 210°
2026-05-06 06:55 42.40568 -1.92186 37021 ft 438 kts 210°
2026-05-06 06:56 42.35097 -1.95833 37021 ft 438 kts 210°
2026-05-06 06:56 42.29638 -1.99473 37020 ft 438 kts 210°
2026-05-06 06:57 42.24176 -2.03107 37021 ft 437 kts 210°
2026-05-06 06:57 42.18719 -2.06725 37019 ft 437 kts 210°
2026-05-06 06:58 42.13266 -2.10333 37025 ft 437 kts 210°
2026-05-06 06:58 42.07813 -2.13930 37027 ft 436 kts 210°
2026-05-06 06:59 42.02362 -2.17522 37014 ft 436 kts 210°
2026-05-06 06:59 41.97836 -2.20500 37029 ft 436 kts 210°
2026-05-06 07:00 41.92388 -2.24078 37036 ft 436 kts 210°
2026-05-06 07:00 41.86946 -2.27646 37034 ft 436 kts 210°
2026-05-06 07:01 41.81497 -2.31211 37033 ft 435 kts 210°
2026-05-06 07:01 41.76051 -2.34768 37032 ft 435 kts 210°
2026-05-06 07:02 41.70612 -2.38314 37031 ft 435 kts 210°
2026-05-06 07:02 41.65172 -2.41853 37030 ft 435 kts 210°
2026-05-06 07:03 41.59738 -2.45382 37028 ft 434 kts 210°
2026-05-06 07:03 41.54303 -2.48907 37031 ft 434 kts 210°
2026-05-06 07:04 41.48871 -2.52420 37024 ft 434 kts 210°
2026-05-06 07:04 41.43440 -2.55913 37022 ft 433 kts 210°
2026-05-06 07:05 41.38009 -2.59402 37014 ft 433 kts 210°
2026-05-06 07:05 41.32297 -2.62083 37024 ft 442 kts 195°
2026-05-06 07:06 41.26117 -2.62586 37025 ft 451 kts 182°
2026-05-06 07:06 41.19841 -2.61947 37008 ft 452 kts 181°
2026-05-06 07:07 41.13576 -2.61305 37006 ft 451 kts 181°
2026-05-06 07:07 41.07314 -2.60730 37018 ft 451 kts 182°
2026-05-06 07:08 41.01058 -2.60174 37005 ft 451 kts 182°
2026-05-06 07:08 40.94803 -2.59614 37009 ft 450 kts 182°
2026-05-06 07:09 40.88548 -2.59055 37004 ft 450 kts 182°
2026-05-06 07:09 40.82303 -2.58497 37010 ft 450 kts 182°
2026-05-06 07:10 40.76058 -2.57939 36998 ft 449 kts 182°
2026-05-06 07:10 40.69821 -2.57385 36995 ft 449 kts 182°
2026-05-06 07:11 40.63593 -2.56832 36997 ft 448 kts 182°
2026-05-06 07:11 40.57367 -2.56280 36993 ft 448 kts 182°
2026-05-06 07:12 40.51143 -2.55730 36994 ft 448 kts 182°
2026-05-06 07:12 40.44922 -2.55180 36994 ft 448 kts 182°
2026-05-06 07:13 40.38768 -2.54879 36986 ft 440 kts 191°
2026-05-06 07:13 40.32898 -2.56528 36986 ft 426 kts 206°
2026-05-06 07:14 40.27373 -2.59352 36989 ft 427 kts 207°
2026-05-06 07:14 40.21838 -2.62189 36989 ft 427 kts 206°
2026-05-06 07:15 40.16284 -2.64993 36988 ft 428 kts 206°
2026-05-06 07:15 40.10713 -2.67781 36976 ft 429 kts 206°
2026-05-06 07:16 40.05136 -2.70562 36978 ft 429 kts 206°
2026-05-06 07:16 39.99556 -2.73340 36972 ft 429 kts 206°
2026-05-06 07:17 39.93982 -2.76111 36977 ft 429 kts 206°
2026-05-06 07:17 39.88414 -2.78874 36975 ft 428 kts 206°
2026-05-06 07:18 39.82851 -2.81631 36979 ft 427 kts 206°
2026-05-06 07:18 39.77297 -2.84378 36968 ft 426 kts 206°
2026-05-06 07:19 39.71750 -2.87118 36967 ft 426 kts 206°
2026-05-06 07:19 39.66209 -2.89851 36967 ft 426 kts 206°
2026-05-06 07:20 39.60671 -2.92577 36969 ft 425 kts 206°
2026-05-06 07:20 39.55137 -2.95300 36973 ft 425 kts 206°
2026-05-06 07:21 39.49614 -2.98022 36974 ft 425 kts 206°
2026-05-06 07:21 39.44094 -3.00739 36975 ft 424 kts 206°
2026-05-06 07:22 39.38578 -3.03445 36976 ft 424 kts 206°
2026-05-06 07:22 39.33058 -3.06127 36968 ft 424 kts 206°
2026-05-06 07:23 39.27539 -3.08801 36969 ft 423 kts 206°
2026-05-06 07:23 39.22022 -3.11472 36966 ft 423 kts 206°
2026-05-06 07:24 39.16506 -3.14140 36976 ft 423 kts 206°
2026-05-06 07:24 39.10986 -3.16806 36976 ft 424 kts 206°
2026-05-06 07:25 39.05468 -3.19467 36969 ft 424 kts 206°
2026-05-06 07:25 38.99985 -3.22106 36969 ft 424 kts 206°
2026-05-06 07:26 38.94464 -3.24765 36968 ft 424 kts 206°
2026-05-06 07:26 38.88946 -3.27424 36965 ft 424 kts 206°
2026-05-06 07:27 38.83425 -3.30080 36962 ft 424 kts 206°
2026-05-06 07:27 38.77908 -3.32730 36961 ft 423 kts 206°
2026-05-06 07:28 38.72397 -3.35372 36960 ft 423 kts 206°
2026-05-06 07:28 38.64131 -3.39327 36960 ft 423 kts 206°
2026-05-06 07:29 38.58629 -3.41955 36962 ft 422 kts 206°
2026-05-06 07:29 38.53126 -3.44578 36961 ft 422 kts 206°
2026-05-06 07:30 38.47624 -3.47197 36959 ft 422 kts 206°
2026-05-06 07:30 38.42122 -3.49812 36959 ft 422 kts 206°
2026-05-06 07:31 38.36625 -3.52419 36956 ft 421 kts 206°
2026-05-06 07:31 38.31136 -3.55020 36953 ft 421 kts 206°
2026-05-06 07:32 38.25641 -3.57619 36948 ft 421 kts 206°
2026-05-06 07:32 38.20149 -3.60213 36957 ft 421 kts 206°
2026-05-06 07:33 38.14491 -3.62323 36931 ft 430 kts 195°
2026-05-06 07:33 38.08453 -3.62677 36957 ft 437 kts 187°
2026-05-06 07:34 38.02363 -3.62650 36954 ft 438 kts 187°
2026-05-06 07:34 37.96275 -3.62655 36948 ft 437 kts 187°
2026-05-06 07:35 37.90187 -3.62696 36943 ft 437 kts 187°
2026-05-06 07:35 37.84144 -3.62747 36954 ft 437 kts 187°
2026-05-06 07:36 37.81089 -3.62774 36556 ft 443 kts 187°
2026-05-06 07:36 37.78014 -3.62800 36033 ft 441 kts 187°
2026-05-06 07:36 37.74950 -3.62823 35426 ft 439 kts 187°
2026-05-06 07:36 37.71890 -3.62847 34754 ft 440 kts 187°
2026-05-06 07:37 37.68825 -3.62871 34088 ft 441 kts 187°
2026-05-06 07:37 37.65759 -3.62900 33299 ft 442 kts 187°
2026-05-06 07:37 37.62687 -3.62922 32591 ft 441 kts 187°
2026-05-06 07:37 37.59622 -3.62943 31877 ft 440 kts 187°
2026-05-06 07:38 37.56559 -3.62966 31132 ft 441 kts 187°
2026-05-06 07:38 37.53485 -3.62990 30359 ft 442 kts 187°
2026-05-06 07:38 37.50400 -3.63015 29489 ft 444 kts 186°
2026-05-06 07:38 37.47308 -3.63039 28571 ft 445 kts 186°
2026-05-06 07:39 37.44199 -3.62887 27648 ft 453 kts 176°
2026-05-06 07:39 37.41165 -3.61638 26875 ft 466 kts 158°
2026-05-06 07:39 37.38476 -3.59333 26268 ft 471 kts 143°
2026-05-06 07:39 37.36334 -3.56199 25631 ft 477 kts 125°
2026-05-06 07:40 37.34787 -3.52516 25041 ft 475 kts 119°
2026-05-06 07:40 37.33358 -3.48782 24385 ft 473 kts 118°
2026-05-06 07:40 37.31949 -3.45064 23733 ft 471 kts 118°
2026-05-06 07:40 37.30523 -3.41372 23000 ft 468 kts 119°
2026-05-06 07:41 37.29083 -3.37722 22287 ft 464 kts 119°
2026-05-06 07:41 37.27642 -3.34121 21644 ft 459 kts 119°
2026-05-06 07:41 37.26212 -3.30563 20997 ft 454 kts 119°
2026-05-06 07:41 37.24794 -3.27036 20371 ft 450 kts 119°
2026-05-06 07:42 37.23406 -3.23542 19769 ft 445 kts 118°
2026-05-06 07:42 37.22040 -3.20079 19163 ft 441 kts 118°
2026-05-06 07:42 37.20687 -3.16640 18546 ft 438 kts 118°
2026-05-06 07:42 37.19342 -3.13227 17853 ft 435 kts 118°
2026-05-06 07:43 37.18006 -3.09845 17184 ft 431 kts 118°
2026-05-06 07:43 37.16681 -3.06495 16550 ft 426 kts 118°
2026-05-06 07:43 37.15370 -3.03186 15917 ft 422 kts 118°
2026-05-06 07:43 37.14505 -3.01008 15479 ft 421 kts 118°
2026-05-06 07:44 37.12776 -2.96656 14915 ft 409 kts 117°
2026-05-06 07:44 37.11948 -2.94570 14833 ft 399 kts 118°
2026-05-06 07:44 37.10730 -2.91508 14643 ft 386 kts 118°
2026-05-06 07:44 37.09551 -2.88545 14491 ft 374 kts 118°
2026-05-06 07:45 37.08403 -2.85665 14340 ft 365 kts 118°
2026-05-06 07:45 37.07282 -2.82867 14184 ft 355 kts 120°
2026-05-06 07:45 37.06124 -2.80835 14016 ft 346 kts 138°
2026-05-06 07:45 37.04203 -2.79166 13831 ft 331 kts 158°
2026-05-06 07:46 37.01980 -2.78371 13089 ft 336 kts 176°
2026-05-06 07:46 36.99649 -2.78454 12396 ft 338 kts 191°
2026-05-06 07:46 36.97315 -2.78949 11689 ft 343 kts 192°
2026-05-06 07:46 36.94931 -2.79365 10956 ft 351 kts 182°
2026-05-06 07:47 36.92497 -2.78807 10229 ft 361 kts 165°
2026-05-06 07:47 36.90097 -2.77837 9691 ft 360 kts 164°
2026-05-06 07:47 36.87775 -2.76911 9654 ft 343 kts 165°
2026-05-06 07:47 36.85539 -2.76038 9575 ft 331 kts 165°
2026-05-06 07:48 36.83369 -2.75208 9457 ft 321 kts 165°
2026-05-06 07:48 36.81274 -2.74411 9369 ft 309 kts 165°
2026-05-06 07:48 36.79302 -2.73456 9252 ft 302 kts 149°
2026-05-06 07:48 36.77815 -2.71679 9177 ft 295 kts 124°
2026-05-06 07:49 36.77062 -2.69356 9103 ft 287 kts 101°
2026-05-06 07:49 36.77017 -2.66919 9022 ft 278 kts 80°
2026-05-06 07:49 36.77508 -2.64637 8964 ft 268 kts 72°
2026-05-06 07:49 36.78066 -2.62465 8878 ft 258 kts 72°
2026-05-06 07:50 36.78606 -2.60371 8800 ft 250 kts 72°
2026-05-06 07:50 36.79129 -2.58328 8615 ft 246 kts 72°
2026-05-06 07:50 36.79639 -2.56296 8368 ft 244 kts 73°
2026-05-06 07:50 36.80140 -2.54280 8131 ft 242 kts 73°
2026-05-06 07:51 36.80635 -2.52278 7899 ft 241 kts 73°
2026-05-06 07:51 36.81126 -2.50293 7681 ft 238 kts 73°
2026-05-06 07:51 36.81611 -2.48324 7450 ft 237 kts 73°
2026-05-06 07:51 36.82094 -2.46369 7223 ft 235 kts 73°
2026-05-06 07:52 36.82571 -2.44429 7013 ft 233 kts 73°
2026-05-06 07:52 36.83045 -2.42501 6835 ft 232 kts 74°
2026-05-06 07:52 36.83514 -2.40586 6648 ft 230 kts 74°
2026-05-06 07:52 36.83980 -2.38685 6448 ft 229 kts 74°
2026-05-06 07:53 36.84446 -2.36793 6277 ft 228 kts 74°
2026-05-06 07:53 36.85155 -2.35042 6030 ft 231 kts 45°
2026-05-06 07:53 36.86594 -2.34142 5604 ft 241 kts
2026-05-06 07:53 36.88232 -2.34562 5210 ft 248 kts 329°
2026-05-06 07:54 36.89555 -2.35974 4839 ft 253 kts 316°
2026-05-06 07:54 36.90788 -2.37515 4497 ft 255 kts 315°
2026-05-06 07:54 36.91732 -2.39375 4083 ft 258 kts 284°
2026-05-06 07:54 36.91735 -2.41573 3702 ft 250 kts 258°
2026-05-06 07:55 36.90969 -2.43441 3350 ft 238 kts 228°
2026-05-06 07:55 36.89894 -2.44926 3214 ft 221 kts 227°
2026-05-06 07:55 36.88897 -2.46285 3075 ft 203 kts 226°
2026-05-06 07:55 36.87941 -2.47472 2975 ft 186 kts 210°
2026-05-06 07:56 36.86711 -2.47814 2423 ft 191 kts 174°
2026-05-06 07:56 36.85411 -2.47330 1776 ft 195 kts 144°
2026-05-06 07:56 36.84484 -2.46267 1762 ft 156 kts 126°
2026-05-06 07:56 36.84000 -2.45163 1473 ft 143 kts 111°
2026-05-06 07:57 36.83752 -2.43984 1247 ft 139 kts 102°
2026-05-06 07:57 36.83535 -2.42807 1056 ft 140 kts 103°
2026-05-06 07:57 36.83367 -2.41572 716 ft 149 kts 91°
2026-05-06 07:57 36.83565 -2.40320 462 ft 146 kts 69°
2026-05-06 07:58 36.83877 -2.39115 211 ft 146 kts 72°
2026-05-06 07:58 36.84171 -2.37931 60 ft 134 kts 72°
2026-05-06 07:58 36.84389 -2.37142 60 ft 47 kts 59°
2026-05-06 07:58 36.84518 -2.36970 61 ft 26 kts 41°
2026-05-06 07:59 36.84623 -2.36906 65 ft 16 kts 333°
2026-05-06 07:59 36.84679 -2.37016 66 ft 16 kts 333°
2026-05-06 07:59 36.84717 -2.37031 66 ft 0 kts 343°